CDT,Max TemperatureF,Mean TemperatureF,Min TemperatureF,Max Dew PointF,MeanDew PointF,Min DewpointF,Max Humidity, Mean Humidity, Min Humidity, Max Sea Level PressureIn, Mean Sea Level PressureIn, Min Sea Level PressureIn, Max VisibilityMiles, Mean VisibilityMiles, Min VisibilityMiles, Max Wind SpeedMPH, Mean Wind SpeedMPH, Max Gust SpeedMPH,PrecipitationIn, CloudCover, Events, WindDirDegrees
2013-5-1,82,67,52,63,58,50,96,73,49,30.08,30.04,29.98,10,10,7,21,4,25,T,2,Rain,130
2013-5-2,72,66,59,62,58,55,97,77,57,30.14,30.08,30.02,10,9,7,10,4,15,0.12,4,Rain,186
2013-5-3,71,57,42,61,51,41,97,82,66,30.02,29.89,29.78,10,7,2,23,8,30,0.98,8,Rain,214
2013-5-4,56,49,41,41,39,36,96,75,54,29.98,29.93,29.88,10,9,2,12,4,26,0.27,7,Rain,206
2013-5-5,59,50,41,54,48,40,100,89,77,29.95,29.88,29.84,10,10,6,12,5,15,0.01,7,Rain,291
2013-5-6,67,60,52,56,53,50,100,84,68,29.93,29.87,29.82,10,9,2,18,8,23,T,8,,3
2013-5-7,74,61,48,58,54,46,100,79,57,30.01,29.96,29.92,10,5,0,9,3,15,0.00,2,Fog,320
2013-5-8,81,68,54,59,55,51,100,70,39,30.04,30.00,29.96,10,9,6,12,5,16,0.00,1,,256
2013-5-9,80,69,58,62,59,56,87,68,48,30.03,29.97,29.91,10,10,10,24,7,33,0.00,2,,213
2013-5-10,76,67,58,64,62,55,100,82,64,29.98,29.89,29.83,10,8,1,24,8,30,0.79,6,Rain-Thunderstorm,234
2013-5-11,73,62,50,55,50,37,93,66,39,30.12,30.00,29.95,10,10,10,17,8,22,0.00,5,,334
2013-5-12,64,52,40,42,34,27,89,58,27,30.22,30.17,30.14,10,10,2,15,5,23,0.00,0,,321
2013-5-13,71,54,37,46,38,32,93,61,28,30.26,30.19,30.12,10,10,10,10,3,17,0.00,0,,202
2013-5-14,84,69,53,59,53,42,72,56,40,30.09,29.99,29.91,10,10,10,22,10,32,0.00,0,,208
2013-5-15,83,75,67,61,56,51,68,56,43,30.04,29.97,29.91,10,10,10,20,10,26,0.00,0,,225
2013-5-16,80,73,65,66,60,55,87,69,50,29.98,29.94,29.90,10,10,5,16,5,20,T,3,Rain,216
2013-5-17,74,69,63,65,63,59,93,86,78,29.98,29.95,29.92,10,9,7,16,5,21,0.04,7,Rain,124
2013-5-18,83,73,63,67,65,63,93,76,58,30.01,29.96,29.92,10,8,2,7,2,15,0.00,7,,73
2013-5-19,88,79,69,73,69,65,100,77,53,29.93,29.89,29.82,10,7,1,16,7,21,T,3,,187
2013-5-20,88,80,71,70,68,66,90,70,50,29.95,29.88,29.80,10,9,6,21,9,29,0.00,2,,197
2013-5-21,78,72,65,69,65,62,93,79,64,29.92,29.85,29.77,10,8,1,29,9,38,1.25,5,Rain-Thunderstorm,202
2013-5-22,78,71,63,65,62,59,93,77,60,29.84,29.80,29.73,10,10,8,20,9,25,0.05,5,Rain,226
2013-5-23,75,65,55,63,55,48,93,73,53,30.17,30.03,29.87,10,10,10,18,10,26,0.00,4,,324
2013-5-24,72,60,47,48,45,42,93,65,37,30.36,30.29,30.18,10,10,10,16,5,22,0.00,1,,31
2013-5-25,77,61,45,56,50,44,100,69,38,30.34,30.25,30.14,10,10,10,10,3,13,0.00,0,,122
2013-5-26,82,69,56,61,57,54,93,67,40,30.19,30.14,30.07,10,10,10,10,5,16,0.00,1,,159
2013-5-27,85,75,65,67,60,55,73,62,51,30.07,30.00,29.91,10,10,10,18,8,28,0.00,2,,195
2013-5-28,86,78,70,68,64,57,79,63,47,30.01,29.95,29.92,10,10,10,20,9,29,0.00,0,,197
2013-5-29,87,74,61,67,62,57,90,67,44,30.05,29.98,29.92,10,10,10,17,8,25,0.00,1,,175
2013-5-30,84,77,69,70,67,64,90,74,58,30.01,29.96,29.89,10,10,2,32,10,49,0.17,4,Rain-Thunderstorm,171
2013-5-31,81,75,69,72,69,66,97,84,71,29.98,29.92,29.84,10,8,2,23,10,30,0.65,6,Rain-Thunderstorm,183